Wind_Speed
17 16 15 15 14 14 15 15 16 15 14 13 12 11 10 10 11 12 13 14 15 17 17 18 19 20 21 22 23 23 23 22 22 23 23 23 23 22 22 22 21 20 19
18 17 17 16 16 16 16 16 16 15 14 14 13 11 11 10 11 12 13 15 16 18 19 20 20 21 22 23 24 24 24 24 24 25 25 26 25 24 24 24 23 22 21
19 18 18 18 17 17 17 16 16 15 14 14 13 12 11 11 11 12 13 15 17 18 19 21 21 22 22 22 23 23 23 24 24 25 27 28 28 27 27 26 26 24 23
20 19 19 19 19 18 18 17 17 16 15 13 12 12 11 11 12 12 14 15 16 18 20 21 22 22 22 22 23 23 23 24 25 26 27 29 29 30 30 29 28 27 27
21 21 21 20 20 19 18 18 17 16 15 14 13 12 12 12 12 13 14 15 16 17 19 21 22 23 23 24 25 25 25 26 27 28 29 29 30 31 31 31 30 30 29
22 21 22 22 22 21 19 18 18 17 15 14 13 13 13 13 13 14 15 16 17 17 18 18 20 21 22 24 26 26 27 28 29 30 31 31 31 31 31 31 31 31 31
23 22 22 23 23 22 20 19 18 17 16 15 14 14 14 14 14 15 16 17 18 19 19 20 21 22 23 24 26 27 28 29 30 31 31 31 31 32 32 33 33 33 33
23 22 23 23 23 21 20 19 19 18 17 16 15 15 15 15 14 14 16 18 19 20 21 22 24 25 27 28 28 29 30 31 32 33 33 33 33 33 34 35 36 36 37
22 22 22 22 22 21 20 20 20 19 18 17 16 16 15 15 14 14 16 17 18 19 20 22 23 24 26 27 29 30 32 33 34 35 35 36 36 36 37 38 38 39 40
21 21 21 21 21 21 20 20 21 20 19 18 17 17 16 15 14 14 15 16 17 18 20 21 22 24 25 26 27 28 29 30 32 33 34 35 36 38 39 40 41 41 42
21 21 21 20 21 21 20 21 22 21 21 20 19 18 17 16 16 16 17 18 19 20 21 22 23 25 26 26 27 28 29 30 32 33 34 35 37 38 40 41 42 43 44
23 22 22 21 21 21 21 21 22 22 22 22 21 20 19 18 18 19 20 21 23 24 25 26 27 28 29 29 30 30 31 32 34 35 36 37 38 39 40 41 42 42 42
25 24 23 23 23 22 22 22 22 23 24 24 23 22 21 20 21 22 24 25 27 29 30 31 31 32 32 33 33 34 34 34 35 35 36 37 38 39 40 40 41 41 40
28 26 25 25 25 25 24 22 22 24 24 25 25 24 23 22 23 25 27 28 30 31 32 33 33 33 34 34 35 36 36 37 37 38 39 39 40 40 40 40 40 40 40
30 28 28 27 27 27 25 24 23 23 24 25 26 25 24 24 25 27 28 29 30 31 32 32 32 32 32 33 35 36 37 38 39 40 41 41 41 41 40 40 41 41 41
31 30 30 29 29 28 26 24 23 23 24 25 26 26 26 26 27 28 28 29 29 30 31 31 31 31 32 33 35 36 37 39 40 41 42 42 42 42 42 42 42 42 42
31 31 31 31 31 29 27 25 23 23 24 25 26 26 26 26 27 27 28 29 30 31 31 31 32 32 33 35 37 38 40 41 42 43 43 43 43 44 43 44 44 44 45
31 31 32 32 31 30 28 26 24 23 24 25 26 27 27 27 28 28 29 30 32 32 32 32 32 33 35 37 39 41 42 44 45 45 45 45 45 45 45 46 46 47 47
33 32 32 32 32 31 29 27 25 25 26 26 27 27 27 28 29 29 31 32 33 33 32 33 34 35 37 39 41 43 45 46 46 46 46 46 46 46 47 48 49 50 52
35 32 32 32 32 31 29 27 26 27 27 27 27 28 28 29 30 31 33 34 34 34 34 35 36 38 40 41 43 45 45 46 46 46 46 47 48 49 50 52 53 55 57
36 34 33 32 32 31 29 28 28 29 29 28 28 29 30 31 32 33 34 35 35 35 37 38 40 41 42 43 44 45 46 46 46 47 48 49 51 53 55 57 59 61 62
37 35 33 33 33 31 29 28 28 29 29 29 29 30 31 32 33 34 35 36 37 38 39 41 42 44 45 45 45 45 45 45 47 48 50 52 55 57 60 62 64 66 67
38 36 35 34 33 32 30 28 28 29 30 30 30 31 32 33 34 36 37 38 39 40 42 43 44 46 47 48 48 48 48 47 47 48 51 55 58 61 63 65 67 68 69
37 37 36 35 34 32 30 28 28 29 30 31 31 32 33 35 36 38 39 40 41 43 44 45 46 48 48 49 50 51 53 54 54 53 53 57 60 62 65 66 67 68 69
38 37 36 35 34 32 30 29 28 29 29 31 32 33 34 36 38 40 41 42 44 45 46 47 49 49 50 51 52 54 56 58 61 62 60 61 62 64 65 66 67 68 70
38 37 36 35 34 32 31 29 29 29 30 31 32 34 35 37 39 40 42 44 45 46 47 49 50 51 52 53 55 57 59 61 64 66 66 66 66 66 67 67 68 71 74
Wind_Direction
261 261 262 266 273 281 288 295 300 302 304 307 309 306 302 296 290 283 276 271 268 267 266 265 264 266 268 270 269 268 267 268 270 272 275 277 280 280 279 278 278 281 285
264 263 264 266 271 276 283 290 295 297 300 303 304 303 301 297 293 288 279 273 271 270 270 271 270 271 273 275 275 273 271 271 273 275 277 278 279 279 278 277 276 278 280
266 265 266 268 270 274 280 286 290 291 293 295 296 295 294 292 291 288 282 276 272 271 272 273 273 274 276 277 277 275 273 273 273 274 276 276 277 276 275 275 275 275 276
267 267 267 268 270 273 278 283 286 287 288 288 289 288 286 285 284 284 282 279 277 274 273 273 273 274 275 276 275 274 274 274 275 276 277 277 276 275 274 274 273 272 272
263 265 267 268 270 272 275 279 281 282 284 285 285 284 282 281 281 280 280 281 282 281 278 276 275 275 275 275 275 275 275 276 277 278 279 280 280 278 276 275 273 271 270
257 260 264 267 269 270 272 273 275 277 279 281 283 283 281 281 281 281 281 281 282 283 284 283 281 280 279 277 277 276 277 278 279 280 280 281 282 281 279 277 275 272 270
254 255 259 264 267 269 270 270 269 269 271 275 279 281 282 282 282 283 283 283 283 282 283 285 285 284 283 282 281 281 281 281 281 282 282 282 282 282 280 278 276 274 273
251 251 256 261 265 267 268 266 263 262 264 269 274 277 279 280 282 286 287 286 285 285 286 286 286 285 284 284 284 284 284 284 284 284 284 284 284 283 281 279 277 276 275
248 249 254 260 264 266 265 262 258 256 259 263 269 272 275 278 282 286 288 289 290 290 291 290 290 289 287 287 286 286 286 286 286 286 285 285 284 283 282 280 279 277 276
246 248 253 259 264 267 266 260 255 253 254 258 263 267 270 274 279 283 286 290 292 293 293 292 291 291 291 291 290 290 289 289 289 288 287 287 285 284 282 281 280 279 278
244 247 252 259 266 271 270 262 254 251 252 255 259 264 267 272 277 280 283 288 291 292 293 293 293 292 292 292 291 290 290 290 290 289 289 288 287 286 285 283 281 280 279
243 245 251 258 265 272 273 265 255 251 252 254 257 261 266 272 277 282 285 289 292 293 293 293 293 293 293 292 291 292 292 293 293 293 292 291 290 288 287 285 284 282 281
242 244 248 255 263 270 273 269 258 252 252 254 256 260 266 273 279 284 287 290 293 294 295 295 295 295 294 293 292 293 294 295 296 297 297 296 294 292 290 288 286 285 283
242 244 247 253 259 266 270 270 261 254 253 255 257 260 266 273 279 284 288 292 295 296 296 296 295 294 292 292 291 292 294 296 297 298 298 299 298 296 294 293 291 289 288
244 244 246 249 255 261 266 267 263 257 255 258 259 262 266 272 278 283 288 292 295 296 297 297 295 293 292 291 291 293 294 296 297 297 298 298 297 295 293 291 290 289 288
244 245 246 248 252 257 262 264 262 259 257 259 262 264 268 273 278 282 286 290 294 297 297 297 295 293 293 293 294 294 295 296 297 297 297 297 295 293 291 289 287 285 284
244 245 247 248 251 255 260 261 261 259 257 259 262 265 268 273 277 280 284 288 292 294 294 294 293 293 293 294 295 296 296 297 297 297 296 296 294 292 290 288 286 285 283
243 244 245 247 250 253 257 259 258 256 255 258 261 265 268 273 276 278 282 286 290 292 292 291 292 293 294 295 296 296 297 297 296 296 295 294 292 291 289 288 286 285 283
244 244 245 246 249 252 254 256 255 253 254 256 260 264 267 272 275 277 281 285 288 290 290 291 292 293 294 295 296 296 296 296 295 294 293 292 290 289 288 286 285 284 284
245 246 246 246 247 249 252 253 252 250 251 254 258 262 265 270 273 277 281 285 287 288 290 291 293 294 294 295 295 296 295 295 294 293 292 291 290 289 288 288 288 287 287
245 247 248 247 246 247 249 250 250 249 250 253 257 260 264 269 273 278 283 286 287 289 291 292 294 295 295 295 296 296 296 295 294 293 293 293 293 292 292 291 291 290 289
243 245 247 248 247 247 248 249 251 251 251 253 257 261 265 270 275 280 284 286 288 290 292 293 295 296 296 297 296 295 294 293 294 295 295 295 295 295 294 294 293 293 292
242 244 246 248 247 247 247 249 251 251 252 254 258 262 266 272 276 281 285 287 289 291 293 294 296 297 297 297 296 295 293 292 291 292 293 294 294 295 294 294 294 293 292
240 242 245 247 247 247 247 248 249 250 252 256 259 263 268 273 277 282 285 288 290 292 294 295 297 298 298 298 297 297 296 296 295 293 292 292 293 294 294 294 293 292 291
238 240 243 246 247 247 248 248 250 252 254 257 261 265 269 274 279 282 285 289 291 293 295 297 298 299 299 299 298 298 298 298 298 297 296 295 295 296 296 295 294 292 291
236 238 241 244 246 246 248 249 251 253 257 260 263 267 271 275 279 283 287 290 292 294 296 298 299 299 300 300 299 299 298 298 297 298 297 297 297 297 296 295 294 293 292
Height
5847 5848 5848 5849 5849 5849 5849 5849 5849 5849 5849 5848 5848 5848 5848 5848 5849 5849 5849 5850 5850 5851 5851 5851 5851 5851 5851 5851 5851 5852 5852 5852 5852 5852 5852 5851 5851 5850 5850 5849 5848 5848 5848
5844 5845 5845 5846 5846 5847 5847 5847 5847 5847 5846 5846 5845 5845 5845 5845 5846 5846 5847 5848 5848 5848 5849 5849 5849 5849 5849 5849 5849 5849 5849 5849 5849 5848 5848 5848 5847 5846 5846 5846 5845 5845 5844
5841 5842 5843 5843 5843 5844 5844 5844 5844 5844 5844 5843 5843 5843 5843 5843 5843 5844 5844 5845 5845 5845 5846 5846 5846 5846 5846 5846 5846 5846 5846 5846 5845 5845 5844 5844 5843 5842 5842 5842 5842 5841 5841
5838 5839 5839 5840 5840 5841 5841 5841 5841 5841 5841 5841 5841 5841 5841 5841 5841 5841 5842 5842 5842 5843 5843 5843 5843 5843 5843 5843 5843 5842 5842 5841 5841 5840 5840 5839 5839 5838 5837 5837 5837 5836 5836
5834 5835 5836 5836 5837 5837 5838 5838 5838 5838 5838 5838 5838 5838 5838 5838 5838 5839 5839 5839 5839 5840 5839 5839 5839 5839 5839 5839 5838 5838 5837 5837 5836 5836 5835 5834 5833 5833 5832 5832 5832 5831 5831
5830 5831 5832 5832 5833 5834 5834 5834 5834 5834 5835 5835 5835 5835 5835 5835 5835 5835 5836 5836 5836 5836 5836 5835 5835 5835 5834 5834 5833 5833 5832 5831 5831 5830 5830 5829 5828 5828 5827 5826 5826 5826 5825
5826 5827 5828 5829 5829 5830 5830 5831 5831 5831 5831 5832 5832 5832 5832 5832 5832 5832 5832 5832 5832 5832 5832 5831 5831 5830 5830 5829 5829 5828 5827 5826 5826 5825 5824 5824 5823 5822 5821 5821 5820 5819 5819
5822 5823 5824 5825 5825 5826 5826 5827 5827 5827 5828 5828 5829 5829 5829 5829 5829 5829 5829 5829 5828 5828 5828 5827 5827 5826 5825 5825 5824 5823 5822 5821 5821 5820 5819 5818 5817 5816 5815 5815 5814 5813 5812
5818 5820 5820 5821 5821 5822 5822 5822 5823 5824 5824 5825 5825 5826 5826 5826 5826 5826 5825 5825 5825 5824 5824 5823 5822 5822 5820 5819 5819 5818 5817 5816 5815 5814 5813 5812 5811 5810 5809 5808 5807 5806 5806
5814 5816 5816 5817 5817 5817 5818 5818 5819 5820 5820 5821 5822 5822 5823 5823 5823 5823 5822 5822 5821 5821 5820 5819 5818 5817 5816 5815 5813 5812 5811 5810 5809 5808 5807 5806 5804 5803 5802 5801 5800 5799 5798
5810 5811 5812 5813 5813 5813 5813 5814 5814 5816 5816 5817 5818 5819 5819 5819 5819 5819 5819 5818 5818 5817 5816 5815 5814 5813 5811 5810 5809 5807 5806 5805 5803 5802 5800 5799 5797 5796 5794 5793 5792 5790 5789
5805 5806 5808 5808 5808 5809 5809 5809 5810 5811 5812 5813 5814 5814 5815 5815 5815 5815 5815 5814 5814 5813 5812 5811 5809 5808 5806 5804 5803 5801 5800 5798 5797 5795 5793 5792 5790 5788 5786 5785 5783 5782 5780
5799 5801 5803 5803 5804 5804 5804 5805 5806 5807 5808 5809 5809 5810 5811 5811 5811 5811 5810 5810 5809 5808 5807 5805 5803 5802 5800 5798 5797 5795 5793 5792 5790 5788 5786 5784 5782 5780 5778 5776 5774 5773 5771
5794 5796 5797 5798 5799 5799 5800 5800 5801 5802 5803 5804 5805 5805 5806 5806 5806 5806 5805 5804 5803 5802 5800 5799 5797 5795 5793 5792 5790 5788 5787 5785 5783 5780 5778 5776 5773 5771 5769 5767 5765 5763 5762
5789 5790 5791 5792 5793 5794 5794 5795 5796 5797 5798 5799 5799 5800 5801 5802 5801 5801 5800 5799 5798 5796 5794 5792 5790 5789 5787 5785 5783 5781 5779 5777 5775 5772 5770 5767 5765 5763 5761 5758 5756 5755 5753
5783 5784 5784 5786 5787 5788 5789 5790 5791 5792 5793 5793 5794 5795 5796 5796 5796 5795 5794 5793 5791 5790 5788 5786 5784 5782 5780 5778 5776 5774 5772 5770 5767 5764 5762 5759 5757 5754 5752 5750 5748 5746 5744
5776 5777 5778 5780 5781 5782 5783 5784 5785 5786 5787 5788 5788 5789 5790 5790 5790 5789 5788 5787 5786 5784 5782 5780 5778 5776 5774 5772 5769 5766 5764 5762 5758 5755 5753 5750 5747 5745 5742 5740 5738 5736 5734
5769 5771 5772 5773 5775 5776 5777 5778 5779 5780 5781 5782 5783 5783 5784 5784 5784 5783 5782 5781 5779 5777 5776 5774 5772 5770 5768 5765 5762 5758 5756 5753 5749 5746 5744 5741 5738 5735 5732 5730 5727 5725 5723
5762 5764 5765 5767 5769 5770 5771 5772 5773 5774 5775 5776 5777 5778 5778 5778 5778 5777 5776 5774 5773 5771 5769 5767 5765 5763 5760 5757 5754 5750 5747 5743 5740 5737 5734 5731 5727 5724 5721 5719 5716 5713 5710
5755 5757 5759 5760 5762 5763 5765 5766 5767 5768 5769 5770 5771 5772 5772 5772 5772 5771 5769 5767 5766 5764 5762 5760 5758 5755 5753 5749 5746 5741 5737 5734 5730 5727 5724 5720 5716 5713 5709 5706 5703 5699 5696
5748 5750 5751 5753 5755 5757 5758 5759 5760 5761 5762 5764 5765 5766 5766 5766 5765 5764 5762 5760 5758 5756 5754 5752 5749 5746 5743 5740 5737 5733 5728 5724 5720 5716 5713 5708 5704 5700 5696 5692 5688 5684 5680
5740 5742 5744 5746 5748 5750 5752 5753 5754 5755 5756 5758 5759 5759 5759 5759 5758 5756 5755 5753 5751 5749 5746 5743 5740 5736 5733 5729 5726 5723 5720 5716 5710 5706 5701 5696 5692 5687 5681 5676 5671 5666 5661
5732 5735 5737 5739 5741 5743 5745 5746 5748 5749 5750 5751 5752 5752 5752 5751 5750 5749 5747 5745 5742 5740 5737 5734 5730 5726 5722 5718 5714 5710 5707 5705 5703 5700 5693 5686 5680 5674 5668 5662 5656 5649 5644
5723 5727 5730 5732 5734 5736 5738 5740 5741 5742 5743 5744 5745 5745 5744 5743 5742 5741 5739 5736 5734 5731 5727 5724 5720 5715 5710 5706 5701 5696 5692 5688 5685 5685 5683 5675 5668 5662 5654 5647 5640 5633 5626
5715 5719 5722 5725 5727 5729 5731 5733 5734 5735 5736 5737 5737 5737 5736 5736 5734 5732 5730 5727 5724 5721 5717 5713 5708 5703 5699 5694 5689 5684 5679 5673 5667 5663 5663 5660 5654 5646 5638 5630 5623 5615 5608
5707 5711 5715 5718 5720 5722 5724 5725 5727 5728 5729 5729 5729 5729 5729 5727 5726 5724 5721 5718 5714 5710 5706 5701 5696 5691 5686 5681 5675 5670 5665 5659 5653 5646 5643 5639 5636 5630 5622 5613 5605 5596 5588